Location: Fuglau
(48.6333°N, 15.5500°E)
Time: 08:42:10
(UTC+00:00)

USA 238 - Pass Details

Date: 27 February 2020
Orbit: 1018 x 1194 km, 63.4° (Epoch: 31 March)

Event Time Altitude Azimuth Distance (km) Brightness Sun altitude
Rises 18:07:56 0° 317° (NW) 3,927 7.4 -15.7°
Reaches altitude 10° 18:10:38 10° 321° (NW) 2,992 6.7 -16.2°
Maximum altitude 18:17:42 58° 41° (NE) 1,323 4.0 -17.3°
Enters shadow 18:21:58 26° 110° (ESE) 2,112 4.7 -18.0°
